| time (UTC) | temp F | wind direction | speed MPH | gust MPH | rain 1hr in | rain 24hr in | rain mn in | humidity % | barometer mb |
| 20260510161005 | 63 | 0 | 0.0 | 16.0 | 0.00 | 0.15 | 0.15 | 81 | 968.0 |
| 20260510155356 | 64 | 0 | 2.0 | 16.0 | 0.00 | 0.15 | 0.15 | 80 | 967.8 |
| 20260510151002 | 64 | 157 | 1.0 | 15.0 | 0.00 | 0.15 | 0.15 | 82 | 968.4 |
| 20260510144001 | 63 | 0 | 0.0 | 7.0 | 0.00 | 0.15 | 0.15 | 85 | 968.8 |
| 20260510134015 | 62 | 179 | 0.0 | 6.0 | 0.00 | 0.15 | 0.15 | 84 | 969.8 |
| 20260510131004 | 62 | 198 | 0.0 | 0.0 | 0.00 | 0.15 | 0.15 | 87 | 970.0 |
| 20260510123953 | 62 | 0 | 0.0 | 0.0 | 0.00 | 0.15 | 0.15 | 88 | 970.4 |
| 20260510120954 | 60 | 189 | 0.0 | 0.0 | 0.00 | 0.15 | 0.15 | 92 | 970.7 |
| 20260510113950 | 59 | 136 | 0.0 | 0.0 | 0.00 | 0.15 | 0.15 | 91 | 971.0 |
| 20260510110950 | 58 | 148 | 0.0 | 0.0 | 0.00 | 0.15 | 0.15 | 93 | 971.2 |
| 20260510103951 | 58 | 138 | 0.0 | 0.0 | 0.00 | 0.15 | 0.15 | 93 | 971.3 |
| 20260510102349 | 58 | 0 | 0.0 | 0.0 | 0.01 | 0.15 | 0.15 | 93 | 971.4 |
| 20260510100720 | 57 | 124 | 0.0 | 0.0 | 0.02 | 0.15 | 0.15 | 94 | 971.2 |
| 20260510090947 | 57 | 0 | 0.0 | 0.0 | 0.02 | 0.14 | 0.14 | 94 | 971.3 |
| 20260510083947 | 57 | 126 | 0.0 | 0.0 | 0.02 | 0.13 | 0.13 | 94 | 971.2 |
| 20260510080941 | 56 | 125 | 0.0 | 0.0 | 0.02 | 0.13 | 0.13 | 94 | 971.3 |
| 20260510073939 | 56 | 124 | 0.0 | 0.0 | 0.01 | 0.12 | 0.12 | 94 | 971.4 |
| 20260510070939 | 56 | 125 | 0.0 | 0.0 | 0.01 | 0.11 | 0.11 | 94 | 971.2 |
| 20260510063938 | 55 | 0 | 0.0 | 0.0 | 0.01 | 0.11 | 0.11 | 94 | 971.3 |
| 20260510060939 | 55 | 0 | 0.0 | 0.0 | 0.02 | 0.10 | 0.10 | 94 | 971.5 |
| 20260510053935 | 55 | 0 | 0.0 | 0.0 | 0.02 | 0.10 | 0.10 | 94 | 971.4 |
| 20260510050949 | 54 | 207 | 0.0 | 0.0 | 0.02 | 0.09 | 0.09 | 93 | 971.6 |
| 20260510043933 | 54 | 0 | 0.0 | 0.0 | 0.02 | 0.08 | 0.08 | 93 | 971.8 |
| 20260510043657 | 54 | 0 | 0.0 | 1.0 | 0.02 | 0.07 | 0.07 | 93 | 971.9 |
| 20260510033931 | 55 | 0 | 0.0 | 6.0 | 0.01 | 0.06 | 0.06 | 92 | 972.0 |
| 20260510032339 | 55 | 207 | 0.0 | 1.0 | 0.01 | 0.06 | 0.06 | 91 | 972.1 |
| 20260510020933 | 57 | 207 | 0.0 | 3.0 | 0.05 | 0.05 | 0.05 | 89 | 972.0 |
| 20260510013930 | 58 | 0 | 0.0 | 1.0 | 0.01 | 0.01 | 0.01 | 86 | 971.7 |
| 20260510012321 | 59 | 0 | 0.0 | 3.0 | 0.00 | 0.00 | 0.00 | 82 | 971.2 |
| 20260510003931 | 60 | 0 | 0.0 | 7.0 | 0.00 | 0.00 | 0.00 | 79 | 970.9 |
| 20260510000932 | 60 | 250 | 0.0 | 1.0 | 0.00 | 0.00 | 0.00 | 76 | 971.0 |
| 20260509233933 | 61 | 0 | 0.0 | 0.0 | 0.00 | 0.00 | 0.00 | 73 | 971.2 |
| 20260509230932 | 61 | 0 | 0.0 | 0.0 | 0.00 | 0.00 | 0.00 | 71 | 971.3 |
| 20260509225306 | 62 | 200 | 0.0 | 0.0 | 0.00 | 0.00 | 0.00 | 70 | 971.4 |
| 20260509220926 | 62 | 200 | 0.0 | 0.0 | 0.00 | 0.00 | 0.00 | 69 | 971.5 |
| 20260509213926 | 63 | 0 | 0.0 | 0.0 | 0.00 | 0.00 | 0.00 | 67 | 971.5 |
| 20260509210918 | 64 | 0 | 0.0 | 0.0 | 0.00 | 0.00 | 0.00 | 66 | 971.4 |
| 20260509203919 | 64 | 0 | 0.0 | 1.0 | 0.00 | 0.00 | 0.00 | 66 | 971.5 |
| 20260509200921 | 65 | 175 | 0.0 | 3.0 | 0.00 | 0.00 | 0.00 | 65 | 971.4 |
| 20260509193917 | 66 | 0 | 0.0 | 0.0 | 0.00 | 0.00 | 0.00 | 63 | 971.3 |
| 20260509190916 | 67 | 0 | 0.0 | 0.0 | 0.00 | 0.00 | 0.00 | 61 | 971.2 |
| 20260509185301 | 68 | 0 | 0.0 | 0.0 | 0.00 | 0.00 | 0.00 | 63 | 971.2 |
| 20260509180915 | 69 | 172 | 0.0 | 0.0 | 0.00 | 0.00 | 0.00 | 61 | 971.1 |
| 20260509173915 | 71 | 157 | 0.0 | 0.0 | 0.00 | 0.00 | 0.00 | 59 | 970.9 |
| 20260509170914 | 71 | 0 | 0.0 | 0.0 | 0.00 | 0.00 | 0.00 | 57 | 970.8 |
| 20260509163911 | 71 | 0 | 0.0 | 0.0 | 0.00 | 0.00 | 0.00 | 56 | 971.1 |